Date,TemperatureHighF,TemperatureAvgF,TemperatureLowF,DewpointHighF,DewpointAvgF,DewpointLowF,HumidityHigh,HumidityAvg,HumidityLow,PressureMaxIn,PressureMinIn,WindSpeedMaxMPH,WindSpeedAvgMPH,GustSpeedMaxMPH,PrecipitationSumIn
2013-3-1,35.7,31.7,26.6,33.9,25.7,20.6,100,80,63,29.68,29.53,9,2,9,0.00
2013-3-2,38.9,31.2,25.1,28.5,22.2,17.8,84,70,56,29.67,29.61,12,2,12,0.00
2013-3-3,37.9,29.3,25.0,32.2,23.3,18.5,92,79,63,29.66,29.56,9,1,9,0.06
2013-3-4,33.1,26.6,23.4,27.0,17.9,14.2,86,70,63,29.76,29.59,16,4,16,0.00
2013-3-5,42.4,30.8,21.3,29.9,20.7,13.4,84,67,50,30.07,29.76,8,1,8,0.00
2013-3-6,34.7,31.3,27.5,28.5,24.9,19.9,88,77,61,30.18,30.07,22,8,22,0.00
2013-3-7,31.4,28.1,26.8,25.8,22.6,18.3,92,80,66,30.15,30.05,17,6,17,0.00
2013-3-8,44.4,32.8,24.0,27.1,20.8,12.0,92,65,29,30.19,30.00,12,2,12,0.10
2013-3-9,52.9,34.0,17.3,29.6,15.9,-3.4,96,56,13,30.35,30.18,4,0,4,0.00
2013-3-10,46.3,32.6,19.0,34.6,24.9,16.8,96,75,54,30.40,30.28,6,1,6,0.00
2013-3-11,49.6,38.3,28.1,38.7,29.5,23.4,95,73,49,30.30,30.12,6,0,6,0.00
2013-3-12,46.2,41.5,35.9,45.8,40.4,31.2,100,96,82,30.12,29.70,7,1,7,0.42
2013-3-13,45.0,36.8,25.6,44.2,26.2,12.2,100,67,42,29.76,29.70,10,2,10,0.00
2013-3-14,32.0,25.1,15.2,24.0,13.0,0.1,92,62,42,29.82,29.68,15,4,15,0.00
2013-3-15,36.4,23.2,13.1,25.4,8.2,-2.0,92,55,29,29.83,29.60,14,3,14,0.00
2013-3-16,31.4,25.1,19.1,21.6,8.9,2.9,84,52,34,29.86,29.66,8,2,8,0.02
2013-3-17,29.1,20.4,10.5,15.4,2.5,-6.8,84,49,27,30.30,29.86,20,4,20,0.00
2013-3-18,34.7,23.0,7.6,16.6,0.4,-7.2,79,41,19,30.44,30.24,5,0,5,0.00
2013-3-19,29.9,25.2,21.0,27.3,22.4,14.4,100,89,63,30.25,29.70,16,4,16,0.00
2013-3-20,35.2,26.5,20.7,24.3,16.5,10.9,96,68,47,29.76,29.67,16,3,16,0.11
2013-3-21,38.9,26.8,13.6,20.8,11.9,1.8,95,57,28,29.77,29.58,8,1,8,0.05
2013-3-22,38.8,27.6,18.8,20.8,15.6,9.4,91,63,39,29.69,29.60,9,2,9,0.01
2013-3-23,37.7,29.3,20.5,18.4,15.1,11.6,84,56,38,29.75,29.62,15,5,15,0.00
2013-3-24,47.4,33.3,24.6,30.6,18.9,13.5,71,56,41,29.81,29.73,13,3,13,0.00
2013-3-25,39.5,30.2,18.8,28.5,20.7,14.4,91,69,48,29.79,29.55,12,2,12,0.00
2013-3-26,46.0,36.1,27.9,29.2,18.3,9.2,75,51,28,29.77,29.57,12,2,12,0.00
2013-3-27,46.4,34.9,21.3,31.8,20.7,13.7,88,59,34,29.88,29.75,14,3,14,0.00
2013-3-28,44.9,36.1,29.6,34.5,27.0,19.5,100,71,47,30.01,29.88,9,1,9,0.01
2013-3-29,51.8,39.0,29.4,35.1,26.8,19.5,88,64,39,30.04,29.98,13,2,13,0.00
2013-3-30,50.9,37.6,26.2,36.2,17.7,-1.8,88,51,19,30.09,30.00,12,2,12,0.00
2013-3-31,56.1,38.5,20.7,32.7,18.9,12.8,88,52,20,30.11,29.82,12,1,12,0.05